Date String (YYYY-MM-DD hh:mm:ss) UTC,Instrument flags,absolute air pressure of the measurement (hPa),sample flow rate (lpm),inlet stack bypass flow (lpm),air temperature of the measurement (°C),ambient temperature measured by the external sensor (°C),aerosol sample conditioner tube jacket temperature (°C),OPC LED temperature (°C),internal box temperature (°C),relative humidity of the measurement (%),span deviation,mass concentration of particles derived from Lorenz-Mie calculation of OPC scattering (μg/m³),mass concentration of particles derived from Lorenz-Mie calculation of OPC scattering (μg/m³),mass concentration of particles derived from Lorenz-Mie calculation of OPC scattering (μg/m³)
DateTimeUTC,F1_M11,P_M11,Q1_M11,Q2_M11,T1_M11,T2_M11,T3_M11,T4_M11,T5_M11,U1_M11,ZSPAN_M11,X0_M11,X2_M11,X1_M11
2023-11-24 16:00:00,SystemResetWarning,0834.2,5.00,000.00,019.1,018.7,000.0,027.3,020.3,12.5,0000.0,0004.10,0002.92,0002.41
2023-11-24 16:01:00,SystemResetWarning,0834.2,5.00,000.00,019.1,018.6,000.0,027.3,020.2,12.5,0000.0,0004.18,0002.90,0002.37
2023-11-24 16:02:00,SystemResetWarning,0834.2,5.00,000.00,019.0,018.5,000.0,027.3,020.2,12.5,0000.0,0004.26,0002.88,0002.35
2023-11-24 16:03:00,SystemResetWarning,0834.2,4.99,000.00,019.0,018.4,000.0,027.3,020.2,12.5,0000.0,0004.72,0002.90,0002.32
2023-11-24 16:04:00,SystemResetWarning,0834.2,5.00,000.00,019.0,018.3,000.0,027.3,020.1,12.5,0000.0,0004.71,0002.90,0002.30
2023-11-24 16:05:00,SystemResetWarning,0834.2,5.00,000.00,019.0,018.2,000.0,027.3,020.1,12.5,0000.0,0004.81,0002.91,0002.30
2023-11-24 16:06:00,SystemResetWarning,0834.2,5.00,000.00,019.0,018.2,000.0,027.3,020.1,12.5,0000.0,0004.67,0002.87,0002.28
2023-11-24 16:07:00,SystemResetWarning,0834.1,5.00,000.00,018.9,018.1,000.0,027.3,020.1,12.6,0000.0,0005.03,0002.85,0002.27
2023-11-24 16:08:00,SystemResetWarning,0834.2,5.00,000.00,018.9,018.1,000.0,027.3,020.1,12.6,0000.0,0005.10,0002.85,0002.27
2023-11-24 16:09:00,SystemResetWarning,0834.2,5.00,000.00,018.9,018.1,000.0,027.3,020.0,12.6,0000.0,0005.23,0002.88,0002.25
2023-11-24 16:10:00,SystemResetWarning,0834.2,5.00,000.00,018.9,018.0,000.0,027.3,020.0,12.7,0000.0,0005.13,0002.82,0002.24
2023-11-24 16:11:00,SystemResetWarning,0834.2,5.00,000.00,018.9,018.0,000.0,027.3,020.0,12.7,0000.0,0005.00,0002.79,0002.23
2023-11-24 16:12:00,SystemResetWarning,0834.2,5.00,000.00,018.9,018.0,000.0,027.2,020.0,12.7,0000.0,0004.84,0002.76,0002.23
2023-11-24 16:13:00,SystemResetWarning,0834.2,5.00,000.00,018.8,018.0,000.0,027.2,020.1,12.7,0000.0,0004.87,0002.79,0002.21
2023-11-24 16:14:00,SystemResetWarning,0834.2,5.00,000.00,018.9,018.4,000.0,027.2,020.6,12.7,0000.0,0004.54,0002.79,0002.21
2023-11-24 16:15:00,SystemResetWarning,0834.2,4.99,000.00,019.1,019.2,000.0,027.2,021.0,12.6,0000.0,0004.49,0002.79,0002.20
2023-11-24 16:16:00,SystemResetWarning,0834.2,4.99,000.00,019.2,019.3,000.0,027.3,020.8,12.5,0000.0,0004.55,0002.81,0002.18
2023-11-24 16:17:00,SystemResetWarning,0834.2,4.99,000.00,019.2,019.1,000.0,027.3,020.5,12.5,0000.0,0004.59,0002.80,0002.15
2023-11-24 16:18:00,SystemResetWarning,0834.1,5.00,000.00,019.1,019.0,000.0,027.3,020.3,12.5,0000.0,0004.19,0002.76,0002.12
2023-11-24 16:19:00,SystemResetWarning,0834.1,5.00,000.00,019.1,018.8,000.0,027.3,020.2,12.5,0000.0,0004.06,0002.75,0002.10
2023-11-24 16:20:00,SystemResetWarning,0834.1,5.00,000.00,019.1,018.6,000.0,027.3,020.1,12.6,0000.0,0004.06,0002.74,0002.10
2023-11-24 16:21:00,SystemResetWarning,0834.1,5.00,000.00,019.0,018.5,000.0,027.3,020.1,12.6,0000.0,0004.15,0002.77,0002.11
2023-11-24 16:22:00,SystemResetWarning,0834.1,4.99,000.00,019.0,018.4,000.0,027.3,020.1,12.6,0000.0,0004.68,0002.78,0002.09
2023-11-24 16:23:00,SystemResetWarning,0834.1,5.00,000.00,019.0,018.3,000.0,027.3,020.1,12.6,0000.0,0004.82,0002.82,0002.09
2023-11-24 16:24:00,SystemResetWarning,0834.1,5.01,000.00,019.0,018.3,000.0,027.3,020.1,12.6,0000.0,0004.67,0002.79,0002.09
2023-11-24 16:25:00,SystemResetWarning,0834.1,5.00,000.00,019.0,018.2,000.0,027.3,020.1,12.6,0000.0,0004.79,0002.80,0002.09
2023-11-24 16:26:00,SystemResetWarning,0834.1,4.99,000.00,018.9,018.1,000.0,027.3,020.1,12.6,0000.0,0005.03,0002.79,0002.08
2023-11-24 16:27:00,SystemResetWarning,0834.1,4.99,000.00,018.9,018.1,000.0,027.3,020.1,12.6,0000.0,0004.87,0002.72,0002.07
2023-11-24 16:28:00,SystemResetWarning,0834.1,5.00,000.00,018.9,018.1,000.0,027.3,020.0,12.6,0000.0,0004.84,0002.70,0002.06
2023-11-24 16:29:00,SystemResetWarning,0834.1,5.00,000.00,018.9,018.0,000.0,027.2,020.0,12.6,0000.0,0004.82,0002.69,0002.06
2023-11-24 16:30:00,SystemResetWarning,0834.1,5.00,000.00,018.9,018.0,000.0,027.2,020.0,12.6,0000.0,0004.99,0002.73,0002.07
2023-11-24 16:31:00,SystemResetWarning,0834.1,5.00,000.00,018.9,018.0,000.0,027.2,020.0,12.7,0000.0,0005.65,0002.73,0002.08
2023-11-24 16:32:00,SystemResetWarning,0834.1,5.00,000.00,018.8,018.0,000.0,027.2,020.0,12.7,0000.0,0006.38,0002.74,0002.09
2023-11-24 16:33:00,SystemResetWarning,0834.1,5.00,000.00,018.8,017.9,000.0,027.2,020.0,12.7,0000.0,0005.95,0002.78,0002.12
2023-11-24 16:34:00,SystemResetWarning,0834.1,5.00,000.00,018.8,017.9,000.0,027.2,020.0,12.8,0000.0,0005.85,0002.79,0002.14
2023-11-24 16:35:00,SystemResetWarning,0834.1,5.00,000.00,018.9,018.1,000.0,027.2,020.4,12.8,0000.0,0006.04,0002.86,0002.17
2023-11-24 16:36:00,SystemResetWarning,0834.1,5.02,000.00,019.0,018.9,000.0,027.2,020.9,12.7,0000.0,0006.01,0002.84,0002.19
2023-11-24 16:37:00,SystemResetWarning,0834.1,4.99,000.00,019.1,019.3,000.0,027.2,020.9,12.6,0000.0,0005.83,0002.89,0002.22
2023-11-24 16:38:00,SystemResetWarning,0834.1,4.99,000.00,019.2,019.2,000.0,027.3,020.6,12.6,0000.0,0005.86,0002.94,0002.26
2023-11-24 16:39:00,SystemResetWarning,0834.1,5.00,000.00,019.1,019.0,000.0,027.3,020.4,12.7,0000.0,0006.03,0003.03,0002.28
2023-11-24 16:40:00,SystemResetWarning,0834.0,5.00,000.00,019.1,018.8,000.0,027.3,020.3,12.7,0000.0,0006.12,0003.07,0002.30
2023-11-24 16:41:00,SystemResetWarning,0834.1,5.01,000.00,019.1,018.7,000.0,027.3,020.3,12.7,0000.0,0005.98,0003.04,0002.31
2023-11-24 16:42:00,SystemResetWarning,0834.0,5.00,000.00,019.1,018.6,000.0,027.3,020.2,12.7,0000.0,0005.64,0003.01,0002.31
2023-11-24 16:43:00,SystemResetWarning,0834.0,5.00,000.00,019.0,018.5,000.0,027.3,020.2,12.7,0000.0,0006.34,0003.02,0002.32
2023-11-24 16:44:00,SystemResetWarning,0834.0,5.00,000.00,019.0,018.4,000.0,027.3,020.1,12.8,0000.0,0006.38,0003.01,0002.33
2023-11-24 16:45:00,SystemResetWarning,0834.0,5.00,000.00,019.0,018.3,000.0,027.3,020.1,12.8,0000.0,0006.43,0003.03,0002.33
2023-11-24 16:46:00,SystemResetWarning,0834.0,5.00,000.00,019.0,018.3,000.0,027.3,020.1,12.8,0000.0,0006.32,0003.00,0002.35
2023-11-24 16:47:00,SystemResetWarning,0834.0,4.99,000.00,019.0,018.2,000.0,027.3,020.1,12.8,0000.0,0006.30,0003.00,0002.35
2023-11-24 16:48:00,SystemResetWarning,0834.0,4.99,000.00,018.9,018.2,000.0,027.3,020.1,12.8,0000.0,0006.23,0003.01,0002.35
2023-11-24 16:49:00,SystemResetWarning,0833.9,5.00,000.00,018.9,018.1,000.0,027.3,020.0,12.8,0000.0,0006.25,0003.01,0002.36
2023-11-24 16:50:00,SystemResetWarning,0834.0,5.00,000.00,018.9,018.1,000.0,027.3,020.0,12.8,0000.0,0006.13,0002.99,0002.38
2023-11-24 16:51:00,SystemResetWarning,0834.0,5.01,000.00,018.9,018.0,000.0,027.2,020.0,12.8,0000.0,0006.04,0002.97,0002.41
2023-11-24 16:52:00,SystemResetWarning,0834.0,5.01,000.00,018.9,018.0,000.0,027.2,020.0,12.8,0000.0,0005.91,0002.94,0002.40
2023-11-24 16:53:00,SystemResetWarning,0834.0,5.00,000.00,018.9,018.0,000.0,027.2,020.0,12.8,0000.0,0005.96,0002.94,0002.41
2023-11-24 16:54:00,SystemResetWarning,0834.0,4.99,000.00,018.9,018.1,000.0,027.2,020.3,12.8,0000.0,0004.31,0002.93,0002.39
2023-11-24 16:55:00,SystemResetWarning,0834.0,5.01,000.00,019.0,018.8,000.0,027.2,020.8,12.7,0000.0,0003.99,0002.90,0002.38
2023-11-24 16:56:00,SystemResetWarning,0834.0,5.00,000.00,019.1,019.0,000.0,027.3,020.7,12.6,0000.0,0004.14,0002.94,0002.39
2023-11-24 16:57:00,SystemResetWarning,0834.0,4.99,000.00,019.1,018.9,000.0,027.3,020.4,12.6,0000.0,0004.15,0002.94,0002.41
2023-11-24 16:58:00,SystemResetWarning,0834.0,4.99,000.00,019.1,018.7,000.0,027.3,020.2,12.6,0000.0,0003.98,0002.91,0002.42
2023-11-24 16:59:00,SystemResetWarning,0833.9,5.01,000.00,019.0,018.6,000.0,027.3,020.2,12.6,0000.0,0004.13,0002.95,0002.42
